Weather History for Tampa Knight Airport, FL

Change the Weather History Date:

Wednesday, December 5, 2012

  Actual Average (KTPA) Record (KTPA)
Temperature  
Mean Temperature 68 °F 65 °F  
Max Temperature 80 °F 74 °F 84 °F (1972)
Min Temperature 57 °F 56 °F 35 °F (1974)
Degree Days  
Heating Degree Days 0 3  
Month to date heating degree days 15  
Since 1 July heating degree days 59  
Cooling Degree Days 4 3  
Month to date cooling degree days 16  
Year to date cooling degree days 3546  
Growing Degree Days 18 (Base 50)    
Moisture  
Dew Point 55 °F    
Average Humidity 65    
Maximum Humidity 88    
Minimum Humidity 39    
Precipitation  
Precipitation 0.00 in 0.08 in 2.02 in (1964)
Month to date precipitation 0.38  
Year to date precipitation 44.21  
Sea Level Pressure  
Sea Level Pressure 30.12 in    
Wind  
Wind Speed 5 mph (NE)    
Max Wind Speed 14 mph    
Max Gust Speed 18 mph    
Visibility 10 miles    
Events      
T = Trace of Precipitation, MM = Missing Value Source: NWS Daily Summary

Daily Weather History Graph

Daily Weather History Graph

Search for Another Location

Airport:

Trip Planner

Search our weather history database for the weather conditions in past years. The results will help you decide how hot, cold, wet, or windy it might be!

Date:

Astronomy

Dec. 05, 2012 Rise Set
Actual Time 7:07 AM EST 5:34 PM EST
Civil Twilight 6:41 AM EST 5:59 PM EST
Nautical Twilight 6:12 AM EST 6:28 PM EST
Astronomical Twilight 5:43 AM EST 6:57 PM EST
Moon 11:57 PM EST (12/5) 11:52 AM EST (12/5)
Length of Visible Light 11h 18m
Length of Day
10h 27m
Waning Gibbous, 60% of the Moon is Illuminated
Dec 5
Waning Gibbous
Dec 6
Last Quarter
Dec 13
New
Dec 20
First Quarter
Dec 28
Full

Hourly Weather History & Observations

Time (EST) Temp. Heat Index Dew Point Humidity Pressure Visibility Wind Dir Wind Speed Gust Speed Precip Events Conditions
12:15 AM 62.6 °F - 53.6 °F 72% 30.21 in 10.0 mi NE 5.8 mph - N/A   Clear
12:35 AM 60.8 °F - 53.6 °F 77% 30.20 in 10.0 mi NE 6.9 mph - N/A   Clear
12:55 AM 60.8 °F - 53.6 °F 77% 30.20 in 10.0 mi NE 6.9 mph - N/A   Clear
1:15 AM 60.8 °F - 53.6 °F 77% 30.19 in 10.0 mi NE 8.1 mph - N/A   Scattered Clouds
1:35 AM 60.8 °F - 53.6 °F 77% 30.19 in 10.0 mi NE 8.1 mph - N/A   Mostly Cloudy
1:55 AM 60.8 °F - 55.4 °F 82% 30.18 in 10.0 mi NE 6.9 mph - N/A   Overcast
2:15 AM 60.8 °F - 53.6 °F 77% 30.17 in 10.0 mi NE 4.6 mph - N/A   Scattered Clouds
2:55 AM 60.8 °F - 53.6 °F 77% 30.17 in 10.0 mi ENE 5.8 mph - N/A   Overcast
3:15 AM 60.8 °F - 53.6 °F 77% 30.17 in 10.0 mi NE 5.8 mph - N/A   Mostly Cloudy
3:35 AM 59.0 °F - 53.6 °F 82% 30.17 in 10.0 mi NE 6.9 mph - N/A   Scattered Clouds
3:55 AM 59.0 °F - 53.6 °F 82% 30.16 in 10.0 mi NE 6.9 mph - N/A   Clear
4:15 AM 59.0 °F - 53.6 °F 82% 30.16 in 10.0 mi NE 6.9 mph - N/A   Clear
4:35 AM 59.0 °F - 53.6 °F 82% 30.15 in 10.0 mi NE 6.9 mph - N/A   Clear
4:55 AM 59.0 °F - 53.6 °F 82% 30.15 in 10.0 mi NE 6.9 mph - N/A   Clear
5:15 AM 59.0 °F - 53.6 °F 82% 30.15 in 10.0 mi NE 6.9 mph - N/A   Clear
5:35 AM 59.0 °F - 53.6 °F 82% 30.15 in 10.0 mi NE 6.9 mph - N/A   Clear
5:55 AM 59.0 °F - 53.6 °F 82% 30.15 in 10.0 mi NE 5.8 mph - N/A   Clear
6:15 AM 57.2 °F - 53.6 °F 88% 30.16 in 10.0 mi NE 5.8 mph - N/A   Clear
6:35 AM 57.2 °F - 53.6 °F 88% 30.15 in 10.0 mi NE 4.6 mph - N/A   Clear
6:55 AM 59.0 °F - 53.6 °F 82% 30.16 in 10.0 mi Calm Calm - N/A   Clear
7:15 AM 59.0 °F - 53.6 °F 82% 30.17 in 10.0 mi Calm Calm - N/A   Clear
7:35 AM 59.0 °F - 53.6 °F 82% 30.17 in 10.0 mi NE 3.5 mph - N/A   Clear
7:55 AM 60.8 °F - 53.6 °F 77% 30.18 in 10.0 mi NE 3.5 mph - N/A   Clear
9:35 AM 69.8 °F - 59.0 °F 68% 30.19 in 10.0 mi ENE 6.9 mph - N/A   Clear
9:55 AM 71.6 °F - 59.0 °F 64% 30.19 in 10.0 mi ENE 5.8 mph - N/A   Clear
10:15 AM 71.6 °F - 60.8 °F 69% 30.19 in 10.0 mi ENE 5.8 mph - N/A   Clear
10:35 AM 73.4 °F - 60.8 °F 65% 30.19 in 10.0 mi East 5.8 mph - N/A   Clear
10:55 AM 75.2 °F - 59.0 °F 57% 30.18 in 10.0 mi ENE 5.8 mph - N/A   Clear
11:15 AM 77.0 °F - 59.0 °F 54% 30.17 in 10.0 mi ENE 4.6 mph - N/A   Clear
11:35 AM 77.0 °F - 57.2 °F 50% 30.16 in 10.0 mi ENE 5.8 mph - N/A   Clear
11:55 AM 77.0 °F - 57.2 °F 50% 30.15 in 10.0 mi ENE 3.5 mph - N/A   Mostly Cloudy
12:15 PM 78.8 °F - 53.6 °F 42% 30.14 in 10.0 mi Calm Calm - N/A   Scattered Clouds
12:35 PM 78.8 °F - 53.6 °F 42% 30.13 in 10.0 mi Calm Calm - N/A   Scattered Clouds
12:55 PM 77.0 °F - 55.4 °F 47% 30.11 in 10.0 mi West 5.8 mph - N/A   Clear
1:15 PM 77.0 °F - 53.6 °F 44% 30.10 in 10.0 mi WSW 4.6 mph - N/A   Clear
1:35 PM 77.0 °F - 53.6 °F 44% 30.09 in 10.0 mi Calm Calm - N/A   Clear
1:55 PM 77.0 °F - 53.6 °F 44% 30.08 in 10.0 mi SSW 4.6 mph - N/A   Scattered Clouds
2:15 PM 78.8 °F - 51.8 °F 39% 30.07 in 10.0 mi Calm Calm - N/A   Scattered Clouds
2:35 PM 78.8 °F - 51.8 °F 39% 30.06 in 10.0 mi ENE 3.5 mph - N/A   Scattered Clouds
2:55 PM 80.6 °F 80.3 °F 53.6 °F 39% 30.06 in 10.0 mi ENE 6.9 mph - N/A   Scattered Clouds
3:15 PM 78.8 °F - 51.8 °F 39% 30.05 in 1.2 mi Calm Calm - N/A   Haze
3:35 PM 78.8 °F - 51.8 °F 39% 30.05 in 10.0 mi East 4.6 mph - N/A   Scattered Clouds
3:55 PM 77.0 °F - 53.6 °F 44% 30.05 in 10.0 mi Calm Calm - N/A   Mostly Cloudy
4:15 PM 77.0 °F - 53.6 °F 44% 30.05 in 10.0 mi Calm Calm - N/A   Mostly Cloudy
4:35 PM 73.4 °F - 55.4 °F 53% 30.05 in 10.0 mi West 3.5 mph - N/A   Overcast
4:55 PM 73.4 °F - 55.4 °F 53% 30.05 in 10.0 mi WNW 3.5 mph - N/A   Overcast
5:15 PM 73.4 °F - 57.2 °F 57% 30.05 in 10.0 mi Calm Calm - N/A   Mostly Cloudy
5:35 PM 71.6 °F - 59.0 °F 64% 30.05 in 10.0 mi Calm Calm - N/A   Mostly Cloudy
5:55 PM 71.6 °F - 59.0 °F 64% 30.05 in 10.0 mi Calm Calm - N/A   Overcast
6:15 PM 71.6 °F - 57.2 °F 60% 30.05 in 10.0 mi Calm Calm - N/A   Overcast
6:35 PM 71.6 °F - 55.4 °F 57% 30.06 in 10.0 mi Calm Calm - N/A   Mostly Cloudy
6:55 PM 71.6 °F - 55.4 °F 57% 30.06 in 10.0 mi NW 4.6 mph - N/A   Mostly Cloudy
7:15 PM 71.6 °F - 55.4 °F 57% 30.06 in 10.0 mi NNW 3.5 mph - N/A   Overcast
7:35 PM 69.8 °F - 55.4 °F 60% 30.07 in 10.0 mi North 3.5 mph - N/A   Overcast
7:55 PM 69.8 °F - 55.4 °F 60% 30.06 in 10.0 mi North 3.5 mph - N/A   Overcast
8:15 PM 69.8 °F - 55.4 °F 60% 30.07 in 10.0 mi NE 8.1 mph - N/A   Overcast
8:35 PM 69.8 °F - 59.0 °F 68% 30.07 in 10.0 mi NE 13.8 mph - N/A   Mostly Cloudy
8:55 PM 69.8 °F - 59.0 °F 68% 30.07 in 10.0 mi NE 11.5 mph 18.4 mph N/A   Overcast
9:15 PM 68.0 °F - 60.8 °F 78% 30.07 in 10.0 mi ENE 10.4 mph - N/A   Mostly Cloudy
9:35 PM 68.0 °F - 60.8 °F 78% 30.07 in 10.0 mi NE 11.5 mph - N/A   Mostly Cloudy
9:55 PM 68.0 °F - 60.8 °F 78% 30.07 in 10.0 mi NE 9.2 mph - N/A   Mostly Cloudy
10:15 PM 66.2 °F - 60.8 °F 83% 30.07 in 10.0 mi ENE 6.9 mph - N/A   Scattered Clouds
10:35 PM 66.2 °F - 60.8 °F 83% 30.07 in 10.0 mi ENE 6.9 mph - N/A   Scattered Clouds